STARLINK-11554, 62833

Orbit data source: Space-Track

STARLINK-11554, 62833 is a payload satellite owned by SpaceX/Seattle (US) in LEO that was launched on Mon, 27 Jan 2025 UTC via an FALCON 9 launch vehicle from the Air Force Eastern Test Range (AFETR). Payload-class satellites include a variety of spacecraft equipped with specific instruments for various scientific and technological missions. These include communications satellites like Starlink; space stations such as the ISS; scientific satellites like the Hubble; Earth observation satellites from companies like Planet Labs, Umbra, and HawkEye 360; GPS; miniature CubeSats for education and research; and military/defense satellites.

Loading next visibility...
Identifier
62833, 2025-019E
Orbit
LEO
Last TLE update
1 day ago
Origin
Manufacturer
SpaceX/Seattle
Mission
Operational Commercial Communications
Bus & Motor
STARLINK V2M, Unknown motor
Mass
730 kg wet, ~700 kg dry
Launch date (UTC)
2025-01-27 (5 months ago)
Launch vehicle
FALCON 9
Launch site
Air Force Eastern Test Range (AFETR)
Object type
Payload
Rocket body
Debris
Shape & HBR
Box + 2 Pan, 29 m
Radar Cross Section
36.964 m², Large (>1 m²)

Expand to show TLE details & history

TLE from 1 day ago
0 STARLINK-11554
1 62833U 25019E   25185.94629347  .00154916  00000-0  11844-2 0  9990
2 62833  43.0041 359.6148 0005084 271.5653  88.4633 15.70908981 24914
Epoch: 2025-07-04T22:42Z
TLE epoch observation values (Epoch: 2025-07-04T22:42:39.755Z)
Latitude
0.00001°
Longitude
95.75777°
Altitude
355.979 km
Speed
7.698 km/s
True Right ascension
23h 58m 27s
True Declination
0° 00' 00"
Sunlit
Object was in daylight at epoch
Visualization orbit readout
Latitude
11.43838°
Longitude
-103.39359°
Altitude
355.806 km
Speed
7.698 km/s
Apparent Right ascension
07h 30m 39s
Apparent Declination
-33° 30' 27"
Sunlit
Object is in daylight
Visualization observer readout
Local Sidereal Time
13:17:04
Azimuth
241.333° WSW
Elevation
-18.444°
Doppler factor
1
Orbital elements
Apogee altitude
361.704 km
Perigee altitude
354.854 km
Semi-major axis
6,736.416 km
Eccentricity
0.00051
Inclination
43.0041°
RAAN
359.6148°
Arg. of periapsis
271.5653°
True anomaly
Unknown
Mean anomaly
88.4633°
Eccentric anomaly
Unknown
Mean motion
3.92554 °/min
Orbital period
91.71 mins
BSTAR
0.0011844
Loading maneuver chart data...
Loading SW <> Apogee altitude chart data...
Loading historical data...
Loading historical data...
Loading historical data...
Loading historical data...
Loading historical data...
Loading historical data...
Loading historical data...

STARLINK-11554 Visibility forecast

Observer location: undefined°, undefined°

Span
Click to sort rows by Start time (UTC) header in descending order
Start Az.
Max El. time (UTC)
Max El. Az.
Max El.
End time (UTC)
End Az.
5 mins2025-07-06 14:35:24.856Z219.94° SW2025-07-06 14:38:24.856Z131.258° SE29.104°2025-07-06 14:40:24.856Z86.342° E
4 mins2025-07-06 16:12:24.856Z276.906° WNW2025-07-06 16:14:24.856Z25.651° NE37.389°2025-07-06 16:16:24.856Z66.601° ENE
|